Charlevoix, MI

2:25 PM EST on February 26, 2017 (GMT -0500)
Charlevoix Municipal

Weather History for KCVX - July, 2012

Change the Weather History Date:

Monday, July 23, 2012

  Actual Average Record
Temperature  
Mean Temperature 78 °F -  
Max Temperature 86 °F 72 °F 89 °F (2001)
Min Temperature 71 °F 58 °F 53 °F (2007)
Cooling Degree Days 14    
Growing Degree Days 28 (Base 50)    
Moisture  
Dew Point 67 °F    
Average Humidity 69    
Maximum Humidity 86    
Minimum Humidity 52    
Precipitation  
Precipitation 0.00 in - - ()
Sea Level Pressure  
Sea Level Pressure 29.86 in    
Wind  
Wind Speed 9 mph (WSW)    
Max Wind Speed 21 mph    
Max Gust Speed 29 mph    
Visibility 10 miles    
Events      
Averages and records for this station are not official NWS values.
T = Trace of Precipitation, MM = Missing Value Source: NWS Daily Summary

Daily Weather History Graph

Daily Weather History Graph

Search for Another Location

Airport or City:

Trip Planner

Search our weather history database for the weather conditions in past years. The results will help you decide how hot, cold, wet, or windy it might be!

Date:

Astronomy

Jul. 23, 2012 Rise Set
Actual Time 6:16 AM EDT 9:18 PM EDT
Civil Twilight 5:40 AM EDT 9:53 PM EDT
Nautical Twilight 4:55 AM EDT 10:38 PM EDT
Astronomical Twilight 4:01 AM EDT 11:32 PM EDT
Moon 11:23 AM EDT (7/23) 11:13 PM EDT (7/23)
Length of Visible Light 16h 12m
Length of Day
15h 02m
Waxing Crescent, 21% of the Moon is Illuminated
Jul 23
Waxing Crescent
Jul 26
First Quarter
Aug 1
Full
Aug 9
Last Quarter
Aug 17
New

Hourly Weather History & Observations

Time (EDT) Temp. Heat Index Dew Point Humidity Pressure Visibility Wind Dir Wind Speed Gust Speed Precip Events Conditions
12:35 AM 71.2 °F - 66.7 °F 86% 29.95 in 10.0 mi SSE 5.8 mph - N/A   Clear
12:54 AM 72.1 °F - 66.6 °F 83% 29.94 in 10.0 mi South 5.8 mph - N/A   Clear
1:15 AM 74.3 °F - 66.2 °F 76% 29.94 in 10.0 mi South 8.1 mph - N/A   Clear
1:34 AM 74.3 °F - 66.0 °F 75% 29.93 in 10.0 mi South 8.1 mph - N/A   Clear
1:54 AM 74.3 °F - 66.2 °F 76% 29.93 in 10.0 mi South 6.9 mph - N/A   Clear
2:15 AM 74.3 °F - 65.8 °F 75% 29.92 in 10.0 mi South 8.1 mph - N/A   Clear
2:34 AM 74.1 °F - 66.0 °F 76% 29.92 in 10.0 mi South 6.9 mph - N/A   Clear
2:55 AM 73.8 °F - 65.7 °F 76% 29.91 in 10.0 mi SSW 8.1 mph - N/A   Clear
3:14 AM 73.6 °F - 65.7 °F 76% 29.91 in 10.0 mi SSW 5.8 mph - N/A   Clear
3:35 AM 73.4 °F - 65.7 °F 77% 29.90 in 10.0 mi South 6.9 mph - N/A   Mostly Cloudy
3:54 AM 74.3 °F - 65.5 °F 74% 29.89 in 10.0 mi South 9.2 mph - N/A   Overcast
4:14 AM 74.3 °F - 65.5 °F 74% 29.89 in 10.0 mi South 8.1 mph - N/A   Overcast
4:34 AM 73.8 °F - 65.5 °F 75% 29.88 in 10.0 mi South 6.9 mph - N/A   Scattered Clouds
4:54 AM 72.5 °F - 65.5 °F 79% 29.87 in 10.0 mi South 6.9 mph - N/A   Clear
5:15 AM 72.3 °F - 65.5 °F 79% 29.86 in 10.0 mi South 6.9 mph - N/A   Scattered Clouds
5:34 AM 72.7 °F - 65.3 °F 78% 29.86 in 10.0 mi South 5.8 mph - N/A   Scattered Clouds
5:55 AM 73.9 °F - 65.3 °F 74% 29.86 in 10.0 mi South 6.9 mph - N/A   Overcast
6:15 AM 74.3 °F - 65.3 °F 73% 29.86 in 10.0 mi South 8.1 mph - N/A   Scattered Clouds
6:34 AM 74.3 °F - 65.3 °F 73% 29.87 in 10.0 mi SSW 5.8 mph - N/A   Clear
6:55 AM 74.7 °F - 65.3 °F 73% 29.86 in 10.0 mi SSW 6.9 mph - N/A   Scattered Clouds
7:15 AM 74.7 °F - 65.5 °F 73% 29.85 in 10.0 mi SSW 8.1 mph - N/A   Clear
7:34 AM 75.7 °F - 66.2 °F 72% 29.85 in 10.0 mi SW 8.1 mph - N/A   Clear
7:55 AM 77.0 °F - 66.6 °F 70% 29.85 in 10.0 mi SW 8.1 mph - N/A   Clear
8:14 AM 77.4 °F - 66.9 °F 70% 29.84 in 10.0 mi SW 9.2 mph - N/A   Clear
8:35 AM 77.9 °F - 67.8 °F 71% 29.84 in 10.0 mi SSW 10.4 mph - N/A   Clear
8:55 AM 78.8 °F - 68.2 °F 70% 29.83 in 10.0 mi SW 10.4 mph 20.7 mph N/A   Clear
9:14 AM 79.2 °F - 68.7 °F 70% 29.83 in 10.0 mi SW 10.4 mph 16.1 mph N/A   Clear
9:35 AM 79.7 °F - 68.5 °F 69% 29.83 in 10.0 mi WSW 13.8 mph 20.7 mph N/A   Clear
9:54 AM 79.7 °F - 68.4 °F 68% 29.82 in 10.0 mi SW 16.1 mph 24.2 mph N/A   Clear
10:14 AM 80.6 °F 83.5 °F 68.9 °F 67% 29.82 in 10.0 mi WSW 15.0 mph 19.6 mph N/A   Clear
10:35 AM 80.6 °F 83.5 °F 68.5 °F 67% 29.81 in 10.0 mi WSW 12.7 mph 24.2 mph N/A   Clear
10:54 AM 81.5 °F 84.9 °F 69.4 °F 67% 29.80 in 10.0 mi WSW 15.0 mph 19.6 mph N/A   Clear
11:14 AM 81.9 °F 85.4 °F 69.4 °F 66% 29.81 in 10.0 mi SW 13.8 mph 20.7 mph N/A   Clear
11:35 AM 81.7 °F 85.1 °F 69.4 °F 66% 29.81 in 10.0 mi WSW 17.3 mph 21.9 mph N/A   Clear
11:54 AM 82.0 °F 85.7 °F 69.8 °F 66% 29.81 in 10.0 mi WSW 15.0 mph 19.6 mph N/A   Clear
12:14 PM 81.5 °F 84.9 °F 69.6 °F 67% 29.81 in 10.0 mi WSW 16.1 mph 19.6 mph N/A   Scattered Clouds
12:35 PM 81.9 °F 85.6 °F 69.8 °F 67% 29.80 in 10.0 mi WSW 17.3 mph 25.3 mph N/A   Clear
12:54 PM 82.2 °F 86.0 °F 69.6 °F 66% 29.80 in 10.0 mi West 18.4 mph 25.3 mph N/A   Clear
1:14 PM 82.4 °F 85.8 °F 69.3 °F 64% 29.81 in 10.0 mi WSW 19.6 mph 25.3 mph N/A   Clear
1:35 PM 84.0 °F 87.6 °F 68.9 °F 60% 29.80 in 10.0 mi WSW 16.1 mph 23.0 mph N/A   Clear
1:54 PM 84.9 °F 88.2 °F 68.2 °F 57% 29.81 in 10.0 mi West 17.3 mph 25.3 mph N/A   Clear
2:15 PM 83.8 °F 87.5 °F 68.9 °F 61% 29.80 in 10.0 mi WSW 16.1 mph 28.8 mph N/A   Clear
2:34 PM 84.0 °F 87.0 °F 67.8 °F 58% 29.80 in 10.0 mi WSW 20.7 mph 28.8 mph N/A   Clear
2:54 PM 85.1 °F 87.7 °F 66.9 °F 54% 29.80 in 10.0 mi WSW 18.4 mph 26.5 mph N/A   Clear
3:15 PM 86.0 °F 88.5 °F 66.6 °F 52% 29.80 in 10.0 mi WSW 13.8 mph 25.3 mph N/A   Clear
3:34 PM 85.3 °F 87.6 °F 66.4 °F 53% 29.81 in 10.0 mi WSW 16.1 mph 27.6 mph N/A   Scattered Clouds
3:54 PM 86.0 °F 89.4 °F 68.4 °F 55% 29.82 in 10.0 mi West 17.3 mph 25.3 mph N/A   Clear
4:15 PM 85.8 °F 89.4 °F 68.5 °F 56% 29.82 in 10.0 mi West 16.1 mph - N/A   Clear
4:34 PM 83.3 °F 87.4 °F 70.0 °F 64% 29.82 in 10.0 mi West 16.1 mph - N/A   Clear
4:54 PM 82.9 °F 87.0 °F 70.2 °F 65% 29.82 in 10.0 mi West 12.7 mph 20.7 mph N/A   Clear
5:15 PM 83.3 °F 86.9 °F 69.3 °F 62% 29.82 in 10.0 mi West 12.7 mph - N/A   Clear
5:34 PM 83.7 °F 87.2 °F 69.1 °F 61% 29.82 in 10.0 mi West 9.2 mph - N/A   Clear
5:54 PM 82.8 °F 85.5 °F 67.8 °F 60% 29.83 in 10.0 mi West 9.2 mph - N/A   Clear
6:15 PM 82.8 °F 85.8 °F 68.2 °F 61% 29.83 in 10.0 mi West 9.2 mph - N/A   Clear
6:34 PM 81.9 °F 84.6 °F 67.6 °F 62% 29.84 in 10.0 mi West 9.2 mph - N/A   Clear
6:54 PM 81.3 °F 83.5 °F 66.0 °F 60% 29.84 in 10.0 mi NW 6.9 mph - N/A   Clear
7:14 PM 78.6 °F - 68.9 °F 72% 29.85 in 10.0 mi NNW 4.6 mph - N/A   Clear
7:34 PM 77.4 °F - 68.5 °F 74% 29.86 in 10.0 mi NNW 5.8 mph - N/A   Clear
7:55 PM 76.6 °F - 68.4 °F 75% 29.86 in 10.0 mi NNW 5.8 mph - N/A   Clear
8:14 PM 77.0 °F - 67.6 °F 73% 29.87 in 10.0 mi NW 6.9 mph - N/A   Clear
8:34 PM 75.9 °F - 65.8 °F 71% 29.87 in 10.0 mi NW 6.9 mph - N/A   Clear
8:55 PM 75.2 °F - 65.3 °F 71% 29.88 in 10.0 mi NW 6.9 mph - N/A   Clear
9:14 PM 74.8 °F - 64.4 °F 70% 29.89 in 10.0 mi NW 6.9 mph - N/A   Clear
9:34 PM 74.3 °F - 63.9 °F 70% 29.89 in 10.0 mi NW 8.1 mph - N/A   Clear
9:54 PM 73.8 °F - 63.9 °F 71% 29.90 in 10.0 mi NW 8.1 mph - N/A   Clear
10:14 PM 73.4 °F - 63.7 °F 71% 29.91 in 10.0 mi NW 8.1 mph - N/A   Clear
10:34 PM 73.4 °F - 62.8 °F 69% 29.91 in 10.0 mi NW 11.5 mph 18.4 mph N/A   Clear
10:54 PM 73.2 °F - 63.1 °F 71% 29.92 in 10.0 mi NNW 10.4 mph 17.3 mph N/A   Clear
11:15 PM 72.9 °F - 63.1 °F 71% 29.92 in 10.0 mi NNW 11.5 mph 18.4 mph N/A   Clear
11:34 PM 72.5 °F - 63.5 °F 73% 29.91 in 10.0 mi NNW 10.4 mph - N/A   Clear
11:54 PM 72.5 °F - 63.3 °F 73% 29.91 in 10.0 mi NNW 11.5 mph 17.3 mph N/A   Clear